Temp
-14 -14 -14 -14 -14 -14 -14 -14 -14 -14 -14 -14 -14 -14 -14 -14 -14 -14 -14 -14 -13 -13 -13 -13 -13 -13 -13 -13 -13 -13 -13 -13 -13 -14 -14 -14 -14 -14 -14 -14 -14 -14 -14 -14 -14 -14 -14 -14 -14 -14 -14 -14 -14 -14 -14 -14 -14 -14 -14 -14 -14 -14 -14
-14 -14 -14 -14 -14 -14 -14 -14 -14 -14 -14 -14 -14 -14 -14 -14 -14 -14 -14 -14 -14 -14 -14 -13 -13 -13 -13 -13 -13 -13 -13 -13 -13 -13 -14 -14 -14 -14 -14 -14 -14 -14 -14 -14 -14 -14 -14 -14 -14 -14 -14 -14 -14 -14 -14 -14 -14 -14 -14 -14 -14 -14 -14
-15 -15 -15 -15 -15 -15 -15 -15 -14 -14 -14 -14 -14 -14 -14 -14 -14 -14 -14 -14 -14 -14 -14 -14 -14 -14 -14 -14 -14 -14 -13 -13 -13 -13 -13 -14 -14 -14 -14 -14 -14 -14 -14 -14 -14 -14 -14 -14 -14 -14 -14 -14 -14 -14 -14 -14 -14 -14 -14 -14 -14 -14 -14
-15 -15 -15 -15 -15 -15 -15 -15 -15 -15 -15 -15 -15 -15 -15 -14 -14 -14 -14 -14 -14 -14 -14 -14 -14 -14 -14 -14 -14 -14 -14 -14 -13 -13 -14 -14 -14 -14 -14 -14 -14 -14 -14 -14 -14 -14 -14 -14 -14 -14 -14 -14 -14 -14 -14 -14 -14 -14 -14 -14 -14 -14 -14
-15 -15 -15 -15 -15 -15 -15 -15 -15 -15 -15 -15 -15 -15 -15 -15 -15 -15 -15 -14 -14 -14 -14 -14 -14 -14 -14 -14 -14 -14 -14 -14 -14 -14 -14 -14 -14 -14 -14 -14 -14 -14 -14 -14 -14 -14 -14 -14 -14 -14 -14 -14 -14 -14 -14 -14 -14 -14 -14 -14 -14 -14 -14
-16 -16 -16 -15 -15 -15 -15 -15 -15 -15 -15 -15 -15 -15 -15 -15 -15 -15 -15 -15 -15 -15 -15 -15 -15 -15 -15 -14 -14 -14 -14 -14 -14 -14 -14 -14 -14 -14 -14 -14 -14 -14 -14 -14 -14 -14 -14 -14 -14 -14 -14 -14 -14 -14 -14 -14 -14 -14 -14 -14 -14 -14 -14
-16 -16 -16 -16 -16 -16 -16 -16 -16 -16 -15 -15 -15 -15 -15 -15 -15 -15 -15 -15 -15 -15 -15 -15 -15 -15 -15 -15 -15 -15 -15 -14 -14 -14 -14 -14 -14 -14 -14 -14 -14 -14 -14 -14 -14 -14 -14 -14 -14 -14 -14 -14 -14 -14 -14 -14 -14 -14 -14 -14 -14 -14 -14
-16 -16 -16 -16 -16 -16 -16 -16 -16 -16 -16 -16 -16 -16 -16 -16 -16 -16 -16 -15 -15 -15 -15 -15 -15 -15 -15 -15 -15 -15 -15 -15 -15 -15 -15 -15 -15 -14 -14 -14 -14 -14 -14 -14 -14 -14 -14 -14 -14 -14 -14 -14 -14 -14 -14 -14 -14 -14 -14 -14 -14 -14 -14
-16 -16 -16 -16 -16 -16 -16 -16 -16 -16 -16 -16 -16 -16 -16 -16 -16 -16 -16 -16 -16 -16 -15 -15 -15 -15 -16 -16 -16 -15 -15 -15 -15 -15 -15 -15 -15 -15 -15 -15 -15 -15 -14 -14 -14 -14 -14 -14 -14 -14 -14 -14 -14 -14 -14 -14 -14 -14 -14 -14 -14 -14 -14
-17 -17 -16 -16 -16 -16 -16 -16 -16 -16 -16 -16 -16 -16 -16 -16 -16 -16 -16 -16 -16 -16 -16 -16 -16 -16 -16 -16 -16 -16 -16 -16 -16 -16 -15 -15 -15 -15 -15 -15 -15 -15 -15 -15 -15 -15 -15 -14 -14 -14 -14 -14 -15 -15 -15 -15 -15 -14 -14 -14 -14 -14 -14
-17 -17 -17 -17 -17 -16 -16 -16 -16 -16 -16 -16 -16 -16 -16 -16 -16 -16 -16 -16 -16 -16 -16 -16 -16 -16 -16 -16 -16 -16 -16 -16 -16 -16 -16 -16 -16 -16 -16 -16 -15 -15 -15 -15 -15 -15 -15 -15 -15 -15 -15 -15 -15 -15 -15 -15 -15 -15 -14 -14 -14 -14 -14
-17 -17 -17 -17 -17 -17 -17 -17 -17 -17 -17 -17 -17 -17 -16 -16 -16 -16 -17 -17 -17 -17 -17 -17 -17 -16 -16 -16 -16 -16 -16 -16 -16 -16 -16 -16 -16 -16 -16 -16 -16 -16 -16 -16 -15 -15 -15 -15 -15 -15 -15 -15 -15 -15 -15 -15 -15 -15 -15 -14 -14 -14 -14
-18 -18 -18 -18 -18 -18 -17 -17 -17 -17 -17 -17 -17 -17 -17 -17 -17 -17 -17 -17 -17 -17 -17 -17 -17 -17 -17 -17 -17 -16 -16 -16 -16 -16 -16 -16 -16 -16 -16 -16 -16 -16 -16 -16 -16 -15 -15 -15 -15 -15 -15 -15 -15 -15 -15 -15 -15 -15 -15 -15 -15 -15 -14
-18 -18 -18 -18 -18 -18 -18 -17 -17 -17 -17 -17 -17 -17 -17 -17 -17 -17 -17 -17 -17 -17 -17 -17 -17 -17 -17 -17 -17 -17 -17 -17 -17 -17 -16 -16 -16 -16 -16 -16 -16 -16 -16 -16 -16 -16 -16 -15 -15 -15 -15 -15 -15 -15 -15 -15 -15 -15 -15 -15 -15 -15 -15
-18 -18 -18 -18 -18 -18 -18 -18 -18 -17 -17 -17 -17 -17 -17 -17 -17 -17 -17 -17 -17 -17 -17 -17 -17 -17 -17 -17 -17 -17 -17 -17 -17 -17 -17 -17 -17 -17 -17 -17 -17 -16 -16 -16 -16 -16 -16 -16 -16 -16 -15 -15 -15 -15 -15 -15 -15 -15 -15 -15 -15 -15 -15
-18 -18 -18 -18 -18 -18 -18 -18 -18 -18 -17 -17 -17 -17 -17 -18 -18 -18 -18 -18 -18 -17 -17 -17 -17 -17 -17 -18 -18 -18 -17 -17 -17 -17 -17 -17 -17 -17 -17 -17 -17 -17 -17 -17 -17 -17 -16 -16 -16 -16 -16 -16 -16 -15 -15 -15 -15 -15 -15 -15 -15 -15 -15
-18 -18 -18 -18 -18 -18 -18 -18 -18 -18 -18 -18 -18 -17 -17 -18 -18 -18 -18 -18 -18 -18 -18 -18 -18 -18 -18 -18 -18 -18 -18 -18 -18 -18 -18 -18 -18 -18 -17 -17 -17 -17 -17 -17 -17 -17 -17 -16 -16 -16 -16 -16 -16 -16 -16 -15 -15 -15 -15 -15 -15 -15 -15
-18 -18 -18 -18 -18 -18 -18 -18 -18 -18 -18 -18 -18 -18 -18 -18 -18 -18 -18 -18 -18 -18 -18 -18 -18 -18 -18 -18 -18 -18 -18 -18 -18 -18 -18 -18 -18 -18 -18 -18 -17 -17 -17 -17 -17 -17 -16 -16 -16 -16 -16 -16 -16 -16 -16 -16 -16 -16 -15 -15 -15 -15 -15
-18 -18 -18 -18 -19 -19 -19 -18 -18 -18 -18 -18 -18 -18 -18 -18 -18 -18 -18 -18 -18 -18 -18 -18 -18 -18 -18 -18 -18 -18 -18 -18 -18 -18 -18 -18 -18 -18 -18 -18 -18 -18 -17 -17 -17 -17 -17 -17 -16 -16 -16 -16 -16 -16 -16 -16 -16 -16 -16 -16 -16 -16 -15
-19 -19 -19 -19 -19 -19 -19 -19 -18 -19 -19 -19 -18 -18 -18 -18 -18 -18 -18 -18 -18 -18 -18 -18 -18 -18 -19 -18 -18 -18 -18 -18 -18 -18 -18 -18 -18 -18 -18 -18 -18 -18 -18 -18 -17 -17 -17 -17 -17 -17 -16 -16 -16 -16 -16 -16 -16 -16 -16 -16 -16 -16 -16
-19 -19 -19 -19 -19 -19 -19 -19 -19 -19 -19 -19 -19 -18 -18 -18 -18 -18 -18 -18 -18 -18 -18 -18 -18 -18 -18 -18 -18 -18 -18 -18 -18 -18 -18 -18 -18 -18 -18 -18 -17 -17 -17 -17 -17 -17 -17 -17 -17 -17 -17 -17 -16 -16 -16 -16 -16 -16 -16 -16 -16 -16 -16
-19 -19 -19 -19 -19 -19 -19 -19 -19 -19 -19 -19 -19 -19 -19 -18 -18 -18 -18 -18 -18 -18 -18 -18 -18 -18 -18 -18 -18 -18 -18 -18 -19 -18 -18 -18 -18 -18 -18 -18 -18 -17 -17 -17 -17 -17 -17 -17 -17 -17 -17 -17 -17 -17 -16 -16 -16 -16 -16 -16 -16 -16 -16
-19 -19 -19 -19 -19 -19 -19 -19 -19 -19 -19 -19 -19 -19 -19 -19 -19 -19 -18 -18 -19 -18 -18 -18 -18 -18 -18 -18 -18 -18 -19 -19 -19 -19 -19 -19 -18 -18 -18 -18 -18 -18 -18 -18 -18 -18 -18 -17 -17 -17 -17 -17 -17 -17 -17 -17 -16 -16 -16 -16 -16 -16 -16
-20 -20 -19 -19 -19 -19 -19 -19 -19 -19 -19 -19 -19 -19 -19 -19 -19 -19 -19 -19 -19 -19 -18 -18 -19 -18 -18 -18 -18 -18 -19 -19 -19 -19 -19 -19 -19 -19 -18 -18 -18 -18 -18 -18 -18 -18 -18 -18 -18 -17 -17 -17 -17 -17 -17 -17 -17 -17 -16 -16 -16 -16 -16
-20 -20 -20 -20 -20 -20 -20 -19 -19 -19 -19 -19 -19 -19 -19 -19 -19 -19 -19 -19 -19 -19 -19 -19 -19 -19 -18 -18 -18 -18 -18 -18 -19 -19 -18 -18 -18 -18 -18 -18 -18 -18 -18 -18 -18 -18 -18 -18 -18 -17 -17 -17 -17 -17 -17 -17 -17 -17 -17 -16 -16 -16 -16
-20 -20 -20 -20 -20 -20 -20 -20 -20 -20 -20 -20 -20 -19 -19 -19 -19 -19 -19 -19 -19 -19 -19 -19 -19 -19 -19 -19 -19 -19 -18 -18 -18 -18 -18 -18 -18 -18 -18 -18 -18 -18 -18 -18 -18 -18 -18 -18 -18 -18 -17 -17 -17 -17 -17 -17 -17 -17 -17 -17 -16 -16 -16
-20 -20 -20 -20 -20 -20 -20 -20 -20 -20 -20 -20 -20 -20 -20 -20 -20 -19 -19 -19 -19 -19 -19 -19 -19 -19 -19 -19 -19 -19 -19 -19 -19 -19 -19 -19 -19 -18 -18 -18 -18 -18 -18 -18 -18 -18 -18 -18 -18 -18 -17 -17 -17 -17 -17 -17 -17 -17 -17 -17 -17 -16 -16
-20 -20 -20 -20 -20 -20 -20 -20 -20 -20 -20 -20 -20 -20 -20 -20 -20 -20 -20 -20 -19 -19 -19 -19 -19 -19 -19 -19 -19 -19 -19 -19 -19 -19 -19 -19 -19 -19 -19 -19 -18 -18 -18 -18 -18 -18 -18 -18 -18 -18 -18 -17 -18 -18 -17 -17 -17 -17 -17 -17 -17 -17 -17
-21 -21 -21 -20 -20 -20 -20 -20 -20 -20 -20 -20 -20 -20 -20 -20 -20 -20 -20 -20 -19 -19 -19 -19 -19 -19 -19 -19 -19 -19 -19 -19 -19 -19 -19 -19 -19 -19 -19 -19 -19 -19 -18 -18 -18 -18 -18 -18 -18 -18 -18 -18 -18 -18 -18 -17 -17 -17 -17 -17 -17 -17 -17
-21 -21 -21 -21 -21 -21 -21 -21 -21 -21 -21 -20 -20 -20 -20 -20 -20 -20 -20 -20 -20 -20 -19 -19 -19 -19 -19 -19 -19 -19 -19 -19 -19 -19 -20 -19 -19 -19 -19 -19 -19 -19 -19 -19 -19 -18 -18 -18 -18 -18 -18 -18 -18 -18 -18 -18 -18 -18 -18 -17 -17 -17 -17
-21 -21 -21 -21 -21 -21 -21 -21 -21 -21 -21 -21 -21 -20 -20 -20 -20 -20 -20 -20 -20 -20 -20 -20 -20 -19 -19 -20 -20 -20 -20 -20 -20 -20 -20 -20 -20 -20 -20 -19 -19 -19 -19 -19 -19 -19 -18 -18 -18 -18 -18 -18 -18 -18 -18 -18 -18 -18 -18 -18 -18 -18 -17
-21 -21 -21 -21 -21 -21 -21 -21 -21 -21 -21 -21 -21 -21 -21 -21 -20 -20 -20 -20 -20 -20 -20 -20 -20 -20 -20 -20 -20 -20 -20 -20 -20 -20 -20 -20 -20 -20 -20 -19 -19 -19 -19 -19 -19 -19 -19 -19 -19 -18 -18 -18 -18 -18 -18 -18 -18 -18 -18 -18 -18 -18 -18
-22 -22 -22 -21 -21 -21 -21 -21 -21 -21 -21 -21 -21 -21 -21 -21 -20 -20 -20 -20 -20 -20 -20 -20 -20 -20 -20 -20 -20 -20 -20 -20 -20 -20 -20 -20 -20 -20 -20 -20 -20 -20 -20 -20 -20 -19 -19 -19 -19 -19 -19 -18 -18 -18 -18 -18 -18 -18 -18 -18 -18 -18 -18
-22 -22 -22 -22 -22 -22 -22 -22 -21 -21 -21 -21 -21 -21 -21 -21 -21 -20 -20 -20 -20 -20 -20 -20 -20 -20 -20 -20 -20 -20 -20 -20 -20 -20 -20 -20 -20 -20 -20 -20 -20 -20 -20 -20 -20 -20 -19 -19 -19 -19 -19 -19 -18 -18 -18 -18 -18 -18 -18 -18 -18 -18 -19
-22 -22 -22 -22 -22 -22 -22 -22 -22 -21 -21 -21 -21 -21 -21 -21 -21 -21 -21 -21 -20 -20 -20 -20 -20 -21 -21 -20 -20 -20 -20 -20 -20 -20 -20 -20 -20 -20 -20 -20 -20 -20 -20 -20 -20 -20 -20 -19 -19 -19 -19 -19 -19 -19 -18 -18 -18 -18 -18 -18 -18 -18 -19
-22 -22 -22 -22 -22 -22 -22 -22 -22 -22 -22 -22 -21 -21 -21 -21 -21 -21 -21 -21 -21 -21 -21 -21 -21 -21 -21 -21 -20 -20 -20 -20 -20 -20 -20 -20 -20 -20 -20 -20 -20 -20 -20 -20 -20 -20 -20 -19 -19 -19 -19 -19 -19 -19 -19 -19 -19 -19 -19 -19 -19 -19 -19
-22 -22 -22 -22 -22 -22 -22 -22 -22 -22 -22 -22 -22 -22 -21 -21 -21 -21 -21 -21 -21 -21 -21 -21 -21 -21 -21 -21 -20 -20 -20 -20 -20 -20 -20 -20 -20 -20 -20 -20 -20 -20 -20 -20 -20 -20 -19 -19 -19 -19 -19 -19 -19 -19 -19 -19 -19 -19 -19 -19 -19 -19 -19
Height
5755 5755 5755 5755 5755 5755 5755 5756 5756 5757 5757 5757 5758 5758 5758 5758 5759 5759 5760 5760 5761 5761 5762 5762 5763 5763 5763 5763 5764 5765 5765 5766 5766 5767 5767 5768 5769 5770 5770 5771 5773 5773 5773 5774 5774 5775 5775 5775 5776 5777 5777 5779 5781 5781 5783 5785 5787 5790 5792 5794 5795 5796 5798
5753 5753 5752 5752 5753 5753 5753 5753 5753 5754 5754 5754 5755 5755 5755 5756 5756 5756 5757 5757 5758 5758 5759 5759 5760 5760 5760 5760 5761 5761 5762 5762 5763 5763 5764 5765 5766 5766 5767 5768 5769 5770 5770 5771 5771 5772 5773 5773 5774 5774 5774 5777 5778 5779 5780 5782 5784 5786 5788 5789 5791 5792 5794
5750 5750 5750 5750 5750 5750 5750 5750 5751 5751 5751 5751 5752 5752 5753 5753 5753 5754 5754 5754 5755 5755 5756 5756 5756 5757 5757 5757 5758 5758 5759 5759 5760 5760 5761 5761 5762 5763 5763 5764 5765 5766 5767 5768 5768 5768 5769 5770 5771 5772 5772 5774 5776 5776 5777 5779 5781 5783 5784 5785 5787 5788 5790
5747 5747 5747 5747 5747 5748 5748 5748 5748 5748 5748 5749 5749 5749 5750 5750 5751 5751 5752 5752 5752 5752 5753 5753 5753 5754 5754 5754 5755 5755 5756 5756 5757 5757 5758 5758 5759 5759 5760 5761 5761 5762 5763 5764 5765 5766 5766 5767 5768 5769 5770 5771 5772 5772 5773 5775 5777 5779 5779 5781 5782 5783 5785
5745 5745 5745 5745 5745 5745 5745 5745 5746 5746 5746 5746 5746 5747 5747 5748 5748 5749 5749 5749 5749 5750 5750 5750 5751 5751 5751 5752 5752 5752 5753 5753 5754 5754 5755 5755 5756 5756 5757 5758 5758 5759 5760 5761 5762 5763 5763 5764 5765 5766 5766 5767 5768 5769 5770 5771 5773 5774 5775 5776 5777 5779 5780
5742 5743 5743 5743 5742 5743 5743 5743 5743 5743 5743 5743 5744 5744 5744 5745 5745 5746 5747 5747 5747 5747 5748 5748 5748 5749 5749 5750 5750 5750 5750 5751 5751 5752 5752 5752 5753 5754 5754 5755 5756 5756 5757 5758 5759 5760 5760 5761 5762 5763 5763 5764 5765 5765 5766 5767 5769 5770 5771 5772 5773 5775 5776
5740 5740 5740 5740 5740 5740 5740 5740 5741 5741 5741 5741 5741 5741 5742 5742 5743 5743 5744 5744 5745 5745 5745 5746 5746 5746 5747 5747 5748 5748 5748 5748 5749 5749 5750 5750 5750 5751 5752 5752 5753 5754 5754 5755 5756 5757 5758 5758 5759 5760 5761 5762 5762 5763 5763 5764 5765 5765 5767 5768 5769 5771 5772
5738 5738 5738 5738 5738 5738 5738 5738 5738 5738 5738 5738 5739 5739 5739 5740 5740 5740 5741 5742 5742 5743 5743 5744 5744 5744 5745 5745 5745 5746 5746 5746 5746 5747 5747 5748 5748 5749 5749 5750 5751 5751 5752 5753 5753 5754 5755 5756 5757 5757 5758 5759 5760 5761 5761 5761 5761 5762 5762 5763 5765 5766 5767
5735 5735 5735 5735 5736 5736 5736 5736 5736 5736 5736 5736 5736 5737 5737 5737 5738 5738 5738 5739 5739 5740 5741 5741 5742 5742 5742 5743 5743 5743 5744 5744 5745 5745 5745 5745 5746 5746 5747 5747 5748 5749 5749 5750 5751 5751 5752 5753 5754 5755 5755 5756 5757 5758 5758 5758 5758 5759 5759 5760 5761 5762 5763
5731 5732 5732 5733 5733 5733 5733 5734 5734 5734 5734 5734 5734 5734 5735 5735 5736 5736 5736 5736 5737 5737 5738 5738 5739 5740 5740 5740 5740 5741 5741 5742 5742 5743 5743 5743 5744 5744 5745 5745 5746 5746 5747 5747 5748 5749 5750 5750 5751 5752 5753 5754 5754 5755 5755 5756 5756 5756 5756 5756 5757 5758 5759
5728 5729 5729 5730 5730 5730 5731 5731 5731 5731 5731 5732 5732 5732 5732 5733 5733 5734 5734 5734 5734 5734 5735 5735 5736 5737 5737 5738 5738 5738 5739 5739 5740 5740 5741 5741 5742 5742 5743 5743 5744 5744 5745 5745 5746 5746 5747 5748 5748 5749 5750 5751 5752 5752 5753 5753 5753 5752 5753 5753 5754 5754 5755
5725 5726 5726 5727 5727 5727 5727 5728 5728 5728 5729 5729 5729 5729 5730 5730 5730 5731 5731 5731 5732 5732 5732 5733 5733 5734 5734 5735 5735 5736 5736 5737 5737 5738 5738 5739 5739 5740 5740 5741 5741 5742 5743 5743 5744 5744 5745 5745 5745 5746 5747 5748 5749 5750 5750 5750 5750 5749 5750 5750 5750 5751 5751
5722 5723 5723 5724 5723 5723 5724 5724 5725 5725 5726 5726 5726 5727 5727 5727 5728 5728 5728 5728 5729 5729 5729 5730 5730 5731 5731 5732 5732 5732 5733 5734 5734 5735 5735 5736 5737 5737 5737 5738 5738 5739 5740 5740 5741 5741 5742 5742 5743 5743 5744 5744 5745 5746 5747 5748 5748 5747 5747 5747 5747 5747 5748
5719 5719 5720 5721 5720 5720 5720 5721 5722 5723 5723 5723 5723 5724 5724 5724 5724 5725 5725 5725 5726 5726 5726 5727 5727 5728 5728 5729 5729 5729 5730 5730 5731 5731 5732 5732 5733 5733 5734 5735 5735 5735 5736 5736 5737 5738 5738 5739 5739 5740 5741 5741 5742 5742 5743 5743 5744 5744 5744 5744 5744 5744 5744
5715 5716 5717 5717 5717 5717 5718 5718 5719 5719 5720 5720 5721 5721 5721 5721 5722 5722 5722 5722 5723 5723 5723 5724 5724 5725 5725 5725 5726 5726 5727 5727 5727 5728 5728 5728 5729 5729 5730 5730 5731 5731 5732 5732 5733 5733 5734 5734 5735 5736 5736 5737 5738 5739 5739 5740 5740 5741 5740 5740 5740 5740 5741
5712 5713 5713 5714 5714 5714 5715 5715 5716 5716 5717 5717 5718 5718 5719 5719 5719 5719 5719 5719 5720 5720 5721 5721 5721 5721 5722 5722 5722 5723 5723 5723 5724 5724 5724 5725 5725 5725 5726 5726 5727 5727 5728 5728 5728 5729 5729 5730 5730 5731 5731 5732 5733 5734 5735 5736 5736 5737 5737 5736 5735 5735 5736
5709 5709 5710 5710 5710 5711 5711 5712 5712 5713 5713 5714 5715 5715 5716 5716 5716 5716 5716 5716 5717 5717 5718 5718 5719 5719 5719 5719 5719 5720 5720 5720 5720 5720 5720 5720 5721 5721 5722 5722 5723 5723 5724 5724 5724 5725 5725 5726 5726 5726 5727 5727 5728 5728 5729 5730 5731 5732 5733 5732 5731 5731 5731
5705 5705 5706 5707 5707 5707 5707 5707 5708 5709 5709 5710 5710 5711 5711 5712 5712 5713 5713 5713 5714 5714 5715 5716 5716 5716 5716 5716 5716 5716 5716 5716 5716 5716 5716 5717 5717 5718 5718 5718 5719 5719 5719 5720 5720 5720 5721 5721 5721 5722 5722 5722 5723 5723 5724 5724 5725 5726 5726 5727 5727 5727 5726
5700 5701 5702 5702 5702 5703 5703 5703 5704 5704 5705 5705 5706 5707 5707 5707 5707 5708 5709 5710 5710 5711 5712 5712 5712 5712 5712 5712 5712 5712 5712 5712 5713 5713 5713 5714 5714 5714 5714 5714 5715 5715 5715 5715 5715 5716 5716 5716 5717 5717 5717 5717 5717 5718 5719 5719 5719 5720 5720 5721 5721 5721 5721
5695 5696 5697 5697 5697 5698 5698 5699 5699 5700 5700 5701 5701 5702 5702 5702 5703 5703 5704 5705 5706 5706 5707 5708 5708 5708 5708 5708 5708 5708 5709 5709 5709 5709 5709 5709 5710 5710 5710 5710 5711 5711 5711 5711 5711 5711 5711 5711 5712 5712 5712 5712 5712 5712 5713 5713 5714 5714 5714 5715 5715 5715 5715
5690 5690 5691 5691 5692 5693 5693 5694 5694 5695 5695 5696 5697 5697 5697 5698 5698 5698 5699 5700 5701 5701 5702 5702 5703 5703 5703 5702 5702 5703 5704 5704 5704 5704 5704 5705 5705 5705 5705 5705 5705 5705 5705 5705 5706 5706 5706 5706 5706 5707 5707 5707 5707 5707 5707 5707 5708 5708 5709 5709 5709 5709 5710
5684 5685 5685 5686 5687 5688 5689 5689 5689 5690 5690 5691 5691 5692 5692 5693 5693 5693 5694 5694 5695 5695 5696 5696 5696 5696 5697 5697 5697 5697 5698 5698 5698 5699 5699 5699 5700 5700 5700 5700 5700 5700 5699 5699 5700 5700 5700 5701 5701 5702 5701 5701 5701 5701 5701 5702 5702 5702 5703 5703 5704 5704 5704
5679 5679 5680 5681 5681 5682 5683 5684 5684 5684 5685 5685 5685 5686 5687 5687 5688 5688 5688 5688 5688 5689 5690 5690 5690 5690 5691 5691 5692 5692 5693 5693 5693 5694 5694 5694 5694 5694 5694 5694 5694 5694 5694 5693 5693 5694 5694 5694 5695 5695 5696 5696 5696 5696 5696 5696 5696 5696 5697 5697 5698 5698 5699
5673 5674 5675 5675 5675 5676 5677 5678 5678 5678 5679 5680 5679 5680 5681 5681 5681 5682 5682 5682 5682 5682 5683 5684 5684 5685 5685 5686 5686 5686 5687 5688 5688 5689 5689 5689 5689 5689 5689 5689 5689 5689 5688 5688 5687 5687 5688 5688 5688 5688 5689 5690 5690 5690 5690 5690 5690 5690 5690 5691 5692 5693 5693
5667 5668 5669 5669 5670 5670 5671 5671 5672 5672 5673 5673 5673 5674 5675 5674 5675 5675 5676 5676 5676 5676 5677 5677 5678 5679 5680 5680 5680 5680 5680 5681 5682 5683 5683 5684 5684 5684 5684 5684 5683 5683 5683 5682 5682 5681 5681 5682 5682 5682 5682 5682 5683 5683 5683 5683 5683 5683 5684 5684 5686 5686 5687
5660 5661 5662 5663 5663 5664 5664 5665 5665 5666 5666 5667 5667 5668 5668 5667 5668 5668 5669 5669 5669 5669 5670 5671 5671 5672 5673 5673 5673 5672 5673 5674 5675 5676 5676 5677 5677 5677 5677 5677 5677 5676 5676 5676 5675 5675 5674 5675 5675 5675 5675 5675 5675 5675 5675 5676 5676 5676 5676 5677 5678 5679 5679
5653 5654 5655 5656 5656 5657 5657 5658 5658 5659 5659 5660 5661 5661 5661 5661 5661 5662 5662 5662 5662 5663 5664 5665 5665 5666 5666 5665 5665 5666 5666 5667 5667 5668 5668 5669 5669 5669 5670 5670 5669 5669 5669 5668 5668 5668 5667 5667 5667 5668 5668 5668 5668 5668 5668 5668 5668 5668 5668 5669 5670 5671 5671
5645 5646 5647 5648 5649 5649 5650 5650 5651 5651 5652 5652 5653 5654 5654 5654 5654 5655 5655 5655 5656 5657 5658 5659 5659 5659 5658 5658 5659 5659 5660 5660 5660 5660 5660 5660 5661 5661 5661 5662 5661 5661 5661 5661 5660 5660 5660 5659 5660 5660 5660 5660 5660 5660 5660 5661 5660 5660 5659 5660 5660 5661 5662
5637 5638 5639 5640 5641 5641 5642 5642 5643 5643 5644 5645 5646 5646 5647 5647 5647 5647 5647 5648 5649 5651 5651 5652 5652 5652 5652 5652 5652 5653 5653 5653 5652 5652 5652 5652 5653 5653 5653 5653 5653 5653 5653 5652 5652 5652 5652 5651 5652 5652 5652 5652 5653 5653 5653 5653 5652 5651 5651 5651 5652 5652 5652
5629 5630 5631 5631 5632 5633 5634 5634 5635 5635 5636 5637 5638 5638 5639 5639 5640 5639 5639 5641 5643 5643 5643 5644 5645 5645 5645 5646 5646 5646 5645 5645 5645 5645 5644 5644 5645 5645 5645 5645 5645 5644 5644 5644 5644 5644 5644 5643 5643 5644 5644 5644 5644 5644 5645 5644 5643 5643 5642 5643 5643 5642 5642
5621 5622 5622 5623 5624 5625 5625 5626 5627 5627 5628 5629 5629 5630 5631 5631 5632 5632 5632 5634 5635 5635 5635 5636 5637 5638 5639 5639 5639 5638 5637 5637 5637 5637 5636 5636 5637 5637 5637 5637 5637 5636 5636 5635 5635 5635 5635 5635 5635 5635 5635 5635 5635 5636 5635 5634 5634 5634 5634 5634 5634 5633 5633
5613 5614 5614 5615 5616 5616 5617 5618 5619 5619 5620 5621 5622 5622 5623 5623 5624 5624 5625 5626 5627 5627 5628 5629 5630 5631 5631 5631 5630 5630 5629 5629 5629 5629 5628 5629 5629 5629 5628 5628 5628 5628 5627 5627 5626 5626 5626 5626 5626 5626 5626 5627 5627 5627 5625 5624 5625 5625 5625 5625 5624 5624 5624
5605 5606 5606 5607 5608 5609 5609 5610 5610 5611 5612 5613 5613 5614 5615 5615 5616 5617 5618 5618 5618 5619 5620 5621 5622 5622 5622 5622 5622 5621 5621 5621 5621 5621 5621 5621 5621 5621 5620 5619 5619 5619 5620 5620 5619 5618 5617 5617 5617 5617 5617 5618 5618 5617 5616 5616 5616 5615 5615 5615 5615 5614 5614
5597 5598 5599 5599 5600 5601 5601 5602 5602 5603 5604 5605 5605 5606 5607 5607 5607 5608 5610 5610 5611 5612 5613 5614 5614 5615 5615 5614 5614 5613 5613 5613 5614 5614 5614 5614 5614 5613 5613 5612 5611 5611 5611 5612 5611 5610 5609 5609 5608 5608 5608 5608 5607 5607 5606 5606 5606 5605 5604 5604 5604 5604 5604
5589 5590 5591 5591 5592 5593 5594 5594 5594 5595 5596 5597 5597 5598 5598 5599 5600 5600 5602 5603 5604 5605 5606 5606 5607 5607 5607 5606 5606 5605 5606 5606 5606 5606 5606 5606 5606 5605 5605 5605 5604 5603 5603 5603 5602 5602 5601 5600 5599 5599 5598 5597 5596 5595 5594 5594 5594 5594 5593 5593 5592 5592 5593
5581 5582 5583 5584 5584 5585 5586 5586 5586 5587 5588 5589 5589 5590 5591 5592 5592 5593 5594 5596 5597 5597 5598 5599 5599 5599 5599 5598 5598 5599 5599 5599 5598 5598 5598 5598 5598 5598 5597 5597 5596 5595 5595 5595 5594 5593 5592 5591 5590 5589 5588 5586 5585 5584 5583 5583 5582 5581 5581 5581 5581 5581 5581
5573 5574 5575 5576 5577 5578 5578 5578 5579 5580 5581 5581 5582 5582 5583 5584 5585 5586 5587 5589 5590 5590 5591 5591 5591 5591 5591 5591 5591 5591 5591 5591 5590 5590 5590 5589 5589 5589 5588 5588 5587 5587 5586 5586 5586 5585 5584 5582 5581 5579 5578 5577 5575 5574 5573 5572 5571 5570 5570 5570 5570 5570 5570
Wind_Speed
22 22 22 22 22 22 22 22 22 22 23 24 24 24 24 24 25 25 24 23 22 22 22 22 23 23 24 25 25 24 25 26 28 30 31 32 32 31 30 29 27 26 24 22 21 22 24 27 28 32 37 38 38 41 44 46 46 45 44 44 43 43 42
21 21 21 21 21 21 21 21 21 21 21 22 22 23 23 23 23 23 23 22 22 22 22 22 22 23 23 24 24 24 24 25 27 28 29 29 30 31 31 30 30 30 29 27 25 22 21 24 27 30 33 34 36 38 39 42 43 42 44 45 44 44 43
20 20 20 21 21 21 21 21 21 21 21 21 21 21 22 22 22 22 21 21 21 21 21 22 22 22 22 22 23 23 23 24 26 26 27 27 28 29 30 30 31 31 31 29 28 27 24 23 24 26 28 31 35 39 39 39 39 39 41 43 44 45 44
19 19 20 20 20 20 20 20 20 21 21 20 20 20 21 21 21 21 20 20 19 20 20 21 21 22 21 22 22 22 23 23 24 25 25 26 26 27 28 29 29 30 31 30 29 29 28 26 25 24 26 27 30 36 38 37 37 39 39 40 41 42 43
19 19 19 20 20 20 19 19 19 20 20 20 20 20 20 20 20 20 20 19 19 19 20 20 20 20 20 21 21 21 22 22 23 24 24 24 24 25 25 26 27 28 28 29 29 29 29 28 28 27 27 27 28 31 34 35 36 37 38 39 40 39 39
19 19 18 18 19 19 19 18 18 19 19 19 19 19 19 19 19 19 19 19 19 19 19 19 20 20 20 19 19 20 20 21 22 22 22 23 23 23 24 24 25 25 26 26 27 28 28 28 28 28 28 29 29 30 32 33 33 34 35 37 40 41 40
19 19 19 18 18 19 18 18 18 18 18 18 18 18 18 18 18 18 18 18 18 18 19 19 19 19 19 19 18 19 19 20 21 21 21 21 22 22 22 23 23 23 23 24 25 25 26 26 27 27 28 28 30 31 32 33 33 33 32 32 35 38 39
20 20 20 20 19 19 19 19 18 18 18 17 17 17 17 17 17 17 17 17 18 18 18 19 19 19 19 19 19 18 19 20 20 21 20 20 21 21 21 21 21 22 22 22 23 23 24 24 24 25 26 27 28 29 31 32 33 34 34 33 33 34 34
21 20 20 20 20 19 19 19 19 19 19 18 18 17 16 16 16 16 17 17 17 17 17 17 18 18 18 19 19 19 19 19 20 20 21 20 20 21 21 21 21 21 21 21 22 22 22 22 22 22 23 24 25 25 27 28 30 31 33 34 34 34 34
22 21 20 20 19 19 18 17 18 18 19 19 19 18 17 16 16 16 16 16 16 16 16 16 17 17 18 18 18 18 18 19 19 20 20 20 20 20 20 20 20 20 20 21 21 22 22 22 22 22 22 22 23 23 24 24 26 27 28 30 31 32 32
22 21 20 19 18 18 17 17 17 17 18 19 19 19 19 18 17 17 16 16 16 16 16 16 16 17 18 18 18 18 18 18 18 18 19 20 20 20 20 20 20 20 20 20 21 21 21 22 22 22 22 22 22 22 22 23 24 26 26 27 28 29 30
21 20 19 18 18 18 18 17 17 17 18 18 19 19 20 20 19 19 18 18 17 17 17 17 17 17 18 19 19 19 19 19 19 19 19 20 20 20 21 21 21 21 21 21 21 22 22 22 23 23 23 23 22 22 22 22 24 26 27 27 28 29 29
22 21 19 18 18 19 19 19 18 18 18 18 19 19 20 20 20 21 21 21 20 19 19 18 18 18 19 20 20 20 21 21 21 21 21 21 21 22 22 22 22 23 23 24 24 24 24 24 25 25 25 25 25 24 24 24 24 26 28 28 29 30 30
24 24 23 21 21 21 21 21 21 20 19 19 20 19 19 19 19 20 20 20 21 21 21 21 20 20 20 21 21 22 22 22 22 23 22 23 23 23 24 24 24 25 25 26 26 26 27 27 27 27 27 27 27 27 27 27 27 27 29 30 30 31 32
26 26 26 25 24 24 24 24 23 23 22 22 21 20 20 20 19 19 19 19 19 19 20 21 21 22 22 22 22 23 23 24 24 24 24 25 25 25 25 25 26 26 27 27 28 28 28 29 29 30 29 30 30 29 29 30 29 29 31 32 33 33 33
29 28 28 28 28 28 27 27 26 26 25 24 23 23 22 22 21 20 19 18 18 18 19 19 20 21 22 22 23 23 24 24 25 26 26 27 27 27 28 28 28 28 28 28 29 29 30 30 31 32 32 32 32 32 32 32 32 32 32 34 35 35 35
31 31 31 31 31 31 31 30 28 27 26 26 25 25 25 25 24 23 21 20 20 20 20 20 20 20 21 21 21 22 23 24 25 26 27 28 28 29 29 30 30 31 31 31 32 32 32 32 33 33 34 34 34 34 34 34 35 35 35 35 36 37 37
34 34 34 33 33 33 33 33 31 30 30 29 29 29 29 28 28 27 25 24 24 24 23 23 22 22 23 23 23 24 25 26 26 27 28 28 29 29 30 31 31 32 33 33 34 34 35 35 35 35 36 36 36 36 36 36 36 36 37 37 38 38 39
36 36 36 35 35 35 35 35 34 34 33 33 32 32 33 33 33 31 30 29 28 27 26 26 26 26 26 26 26 27 28 29 29 29 29 29 30 31 31 32 33 34 35 35 36 36 36 36 36 36 37 37 38 38 37 37 37 37 37 37 38 39 39
37 37 37 37 37 37 37 37 37 37 36 35 34 34 36 37 37 36 35 33 32 31 28 27 28 29 30 30 31 31 32 33 34 34 33 32 32 33 33 34 35 35 36 37 37 37 37 37 37 37 38 38 39 39 39 38 38 37 37 37 37 38 37
39 39 39 38 39 39 39 38 38 39 39 37 36 35 37 38 39 39 39 37 37 35 32 30 31 33 34 36 37 37 37 37 38 38 37 37 36 36 36 37 37 38 38 38 39 39 39 39 39 39 39 39 39 40 40 40 40 39 38 37 36 36 36
42 42 42 41 42 41 41 40 40 41 41 40 40 39 38 39 40 41 41 41 40 39 38 37 37 37 37 38 38 38 37 38 39 40 40 40 39 38 38 39 39 40 41 41 41 40 40 40 40 40 40 40 40 40 41 42 42 42 41 39 38 37 36
47 47 47 46 46 45 45 44 44 44 44 44 44 43 42 41 42 43 43 43 42 42 42 43 43 41 40 39 37 34 34 35 36 38 39 39 39 39 39 39 39 40 42 43 43 42 41 41 41 41 41 41 42 42 43 43 43 44 43 42 41 40 39
51 50 50 50 50 50 49 49 48 48 47 48 48 47 46 45 44 45 46 46 46 46 47 47 47 45 44 44 42 41 40 40 40 40 40 40 40 40 40 41 41 41 42 43 43 43 42 42 42 43 43 43 43 44 44 45 45 45 45 45 44 44 43
53 53 53 52 52 52 52 51 51 50 50 50 51 51 50 50 49 48 48 49 49 50 50 51 51 50 49 49 49 50 50 49 48 47 47 46 46 46 45 46 46 46 45 45 45 46 46 46 46 46 46 46 46 46 46 46 47 47 47 47 47 47 47
54 54 53 53 53 53 53 52 52 52 52 52 52 52 53 53 53 52 52 52 52 52 53 53 54 53 53 53 53 54 54 54 53 52 51 51 51 50 50 50 50 49 49 49 49 50 50 50 50 50 49 47 47 48 48 48 49 50 50 49 49 49 51
56 56 55 55 55 54 54 54 54 54 55 55 54 54 55 56 56 56 56 56 56 56 55 56 56 56 56 56 56 56 57 56 55 54 53 52 52 52 51 51 51 51 52 52 53 54 55 55 55 54 53 50 48 49 50 50 51 52 53 53 52 52 53
59 58 58 58 57 57 56 56 56 56 56 57 57 57 58 58 59 59 59 60 59 59 58 59 59 59 59 59 58 58 57 57 56 55 54 53 53 52 52 51 51 52 53 53 54 55 56 57 56 56 56 55 53 52 53 53 54 55 55 56 55 54 54
58 58 58 58 58 57 57 57 57 57 57 57 57 57 58 59 60 60 61 61 60 60 60 60 59 59 59 59 58 58 57 57 56 56 55 54 53 53 52 52 52 53 54 55 55 56 56 57 57 57 57 58 58 58 57 57 57 57 58 58 58 58 58
56 56 56 56 56 56 56 56 57 57 57 57 57 57 57 58 58 59 59 59 59 59 59 59 58 58 58 57 57 57 57 57 56 56 55 55 53 52 51 51 51 52 53 55 56 56 57 57 58 58 59 59 60 60 59 59 59 59 59 59 59 60 60
54 54 54 54 55 55 55 56 56 56 56 57 57 57 57 57 57 58 58 58 57 58 58 58 57 57 57 57 56 56 57 56 56 55 55 54 52 51 51 51 51 52 53 54 55 56 56 57 57 57 58 59 59 59 60 61 61 61 61 61 60 60 61
52 52 53 53 53 54 54 55 55 56 56 56 57 57 57 57 57 58 58 58 58 58 58 58 57 57 57 56 56 56 55 55 55 54 55 54 53 52 53 53 52 51 50 51 52 53 54 54 55 55 56 56 57 57 59 60 61 62 62 62 62 62 62
52 52 52 53 53 53 54 54 55 55 55 56 57 57 57 57 58 58 58 58 59 59 58 57 57 56 56 56 55 55 55 54 54 54 54 54 54 54 54 53 51 49 48 48 50 52 53 53 54 55 55 55 56 57 58 59 60 61 62 62 63 63 64
52 52 53 53 53 53 53 54 54 55 55 55 56 56 56 56 57 57 57 57 57 57 57 56 55 55 55 55 55 55 55 54 54 54 53 53 54 54 54 52 51 50 49 50 52 53 53 54 55 55 56 57 58 59 60 60 61 62 63 64 64 65 66
52 53 53 54 54 54 53 54 55 55 55 55 55 55 55 55 55 55 55 54 54 54 53 53 52 53 53 54 55 55 55 55 55 55 54 54 54 55 54 53 53 53 54 56 56 55 54 54 56 57 58 59 61 62 63 63 64 64 65 67 67 68 69
51 52 53 53 54 53 53 54 55 55 55 55 55 55 55 54 54 55 54 53 52 52 52 52 52 52 54 55 55 55 55 56 56 56 56 56 56 57 57 58 59 60 61 60 58 56 55 56 58 59 61 62 62 63 64 65 65 66 67 68 69 70 71
49 50 51 52 52 52 53 53 54 54 54 54 55 55 55 54 54 54 54 53 53 53 53 54 55 55 56 56 56 56 57 57 58 58 58 57 57 58 59 60 61 61 60 59 57 56 56 58 59 60 61 62 62 62 62 63 63 65 66 66 67 68 70
Wind_Direction
255 257 259 261 262 263 265 266 266 267 267 268 269 270 270 269 268 267 265 264 262 260 258 257 256 256 256 256 256 254 252 251 252 251 251 253 256 257 257 257 257 256 255 248 236 233 238 240 234 231 233 231 233 237 235 235 237 239 241 242 243 244 245
255 257 259 261 262 263 264 265 265 266 267 268 269 270 270 269 268 266 264 262 260 259 258 257 257 256 255 256 256 255 253 252 254 254 253 253 253 254 255 255 254 255 258 257 251 245 239 236 234 235 235 231 232 237 237 236 238 240 242 243 244 245 247
258 258 259 261 262 262 263 263 264 265 266 267 269 270 270 269 267 265 263 261 259 258 258 257 257 256 255 254 255 254 252 251 252 253 253 253 253 253 253 254 254 254 256 257 257 257 253 246 241 237 236 233 232 236 238 238 239 241 243 244 246 247 246
259 260 261 262 263 263 262 263 263 263 264 266 267 269 269 269 268 265 261 259 258 257 257 257 257 257 256 254 254 254 253 251 251 252 253 253 253 253 253 253 254 254 254 255 256 258 258 256 254 249 243 238 232 232 236 238 238 240 243 244 245 247 247
261 261 262 263 264 264 264 264 263 262 262 263 264 266 267 268 267 265 262 259 257 257 257 258 258 258 257 256 255 254 253 252 251 252 252 253 253 252 253 254 254 254 255 255 255 257 258 258 258 258 255 252 246 239 236 235 236 237 239 240 242 244 244
262 262 262 263 263 264 265 265 264 263 261 261 262 263 265 266 265 264 262 259 256 256 257 259 260 260 260 259 257 255 255 254 253 253 252 253 253 252 251 252 253 253 253 254 255 256 257 257 257 258 258 259 259 256 250 247 244 242 240 239 239 240 242
263 263 263 263 263 264 265 266 266 265 264 262 262 264 265 266 266 265 263 260 257 254 255 257 259 260 261 261 260 257 256 255 255 255 253 251 252 252 250 250 251 252 252 252 254 255 256 256 257 257 258 258 259 261 261 260 259 257 253 249 244 242 244
263 263 263 263 263 263 264 266 267 267 268 266 265 266 267 268 269 268 266 263 260 256 253 253 255 256 258 258 258 256 255 255 256 256 255 253 251 251 250 249 250 250 251 251 251 253 254 255 255 255 256 257 257 258 260 262 262 263 263 261 258 255 252
264 262 262 261 261 262 263 264 266 267 268 268 268 267 268 270 272 272 271 269 265 261 257 254 253 253 254 255 254 253 252 252 253 255 257 256 254 254 253 252 250 249 250 250 250 250 252 253 253 254 254 255 257 258 259 261 262 263 264 265 264 264 263
266 264 262 261 260 261 261 262 264 266 267 268 268 268 267 268 270 271 272 272 270 267 264 261 258 255 254 253 253 253 251 250 249 251 253 256 256 256 256 256 256 254 253 253 253 252 252 253 253 253 253 254 255 257 258 260 262 263 264 265 266 266 265
267 265 262 260 260 260 260 261 263 265 267 269 269 269 267 266 266 266 267 268 269 268 267 265 263 261 257 255 253 252 252 251 250 250 250 253 255 255 256 257 258 258 257 257 258 258 258 258 258 257 257 256 256 258 260 261 263 263 262 264 266 266 266
266 262 258 257 258 258 258 259 262 265 268 270 272 272 271 269 267 264 263 262 263 264 264 264 263 263 261 259 257 255 253 253 252 253 253 254 255 257 258 259 259 259 260 260 260 260 261 262 262 263 262 262 260 260 261 262 264 266 266 266 266 267 267
264 258 255 256 258 259 258 258 261 265 268 271 273 274 274 274 272 269 266 263 261 260 260 260 259 259 259 259 259 258 257 256 256 256 257 257 258 260 261 262 263 263 263 263 262 262 262 262 263 263 264 264 264 264 263 262 263 265 267 268 268 268 269
261 259 258 258 257 257 259 261 262 265 267 269 270 272 272 272 271 271 270 267 265 263 261 260 259 257 257 256 257 257 257 257 258 257 257 258 259 260 260 262 263 264 264 265 265 265 265 265 264 264 264 264 264 265 265 264 264 264 266 267 267 268 269
261 260 261 262 260 258 258 261 264 266 267 266 266 266 266 266 266 268 270 270 269 268 266 265 263 260 258 256 255 255 255 255 256 256 256 256 257 257 258 259 260 262 263 264 264 265 265 266 266 266 265 265 264 264 264 264 264 265 266 267 267 267 268
261 261 261 262 263 262 260 260 263 266 266 266 265 263 262 263 264 263 265 268 271 271 271 271 269 267 264 261 257 255 254 254 254 254 254 254 255 255 256 257 257 258 259 260 262 263 263 264 265 265 265 265 265 264 263 263 262 262 263 265 266 267 268
259 260 261 262 263 264 263 261 261 263 264 266 266 264 261 260 259 258 259 262 265 268 270 270 269 268 266 263 261 258 256 255 254 254 254 254 255 255 256 257 257 257 257 258 259 260 261 262 263 264 264 265 265 265 264 263 262 261 260 261 262 264 265
260 260 260 261 263 264 265 264 263 261 262 264 266 264 262 258 255 254 254 257 261 265 267 266 265 266 265 263 262 261 260 258 257 257 257 256 257 257 258 259 259 260 261 262 262 263 263 263 264 264 264 264 265 264 264 264 264 263 262 260 260 260 261
260 260 260 261 261 262 263 264 264 264 263 262 262 262 262 260 258 255 255 256 259 261 263 263 262 263 263 262 262 261 261 261 261 262 262 262 261 261 260 261 262 263 265 267 268 268 268 268 268 267 266 266 265 264 263 262 262 263 262 262 260 260 259
259 259 260 261 261 261 261 262 262 264 264 262 260 259 258 259 260 259 258 257 257 257 259 260 259 259 259 260 261 262 263 264 264 265 265 265 265 266 265 264 264 265 267 268 269 269 270 270 271 271 270 269 268 266 264 262 260 259 259 259 259 258 257
257 257 259 260 260 261 261 260 259 261 262 262 261 258 256 256 259 261 262 261 259 258 258 258 258 257 256 258 261 263 264 264 263 263 263 264 266 267 268 268 268 268 268 269 269 269 270 270 271 271 270 270 270 269 267 264 261 259 257 255 254 253 252
256 257 259 260 260 260 260 259 259 259 259 260 260 259 256 256 258 260 262 263 263 261 259 261 263 261 258 260 262 264 264 262 261 261 263 265 267 268 268 270 270 270 269 268 268 269 269 270 271 271 270 270 269 269 268 267 265 261 258 255 251 247 245
258 259 260 261 262 262 261 260 261 261 260 259 259 258 258 258 258 259 260 263 264 262 260 263 266 265 263 264 265 265 264 262 262 263 264 266 267 268 270 272 273 272 269 268 267 267 267 269 270 270 270 270 269 269 269 268 266 264 261 257 252 246 243
258 259 260 261 262 263 263 262 262 262 261 261 260 259 259 259 260 260 260 262 264 265 264 265 267 267 267 267 267 268 269 269 269 270 270 270 270 271 273 275 276 275 272 269 267 267 268 270 271 271 271 271 270 270 270 269 267 266 264 260 256 251 248
258 259 259 260 261 262 262 262 262 262 262 261 261 260 260 260 261 261 261 262 264 266 267 269 270 270 270 271 271 272 273 273 274 274 274 274 273 273 274 275 275 274 273 271 269 268 269 271 273 273 273 273 273 272 272 270 268 268 267 264 261 257 254
259 260 260 260 261 261 261 261 261 261 261 261 261 261 260 261 261 262 263 264 266 267 268 270 272 273 274 274 274 275 275 276 276 276 276 276 275 274 274 273 273 272 271 270 269 269 270 272 274 274 273 273 274 274 273 272 270 269 268 267 265 263 259
260 261 262 262 262 261 261 261 260 261 261 261 261 261 261 261 261 263 264 266 267 268 269 269 271 272 273 273 274 275 277 278 278 278 277 276 275 275 274 272 272 271 270 269 269 268 269 271 273 273 271 271 273 274 274 274 273 271 270 268 267 265 263
261 261 262 262 262 262 262 262 262 262 262 262 261 261 261 262 262 262 264 265 266 267 268 269 269 270 271 272 273 274 275 276 276 276 276 275 274 274 273 272 270 270 269 269 268 268 269 270 271 270 269 268 270 272 274 274 274 272 271 269 268 267 266
262 262 262 262 262 262 262 263 263 263 263 263 263 262 262 262 263 263 264 264 265 265 266 267 268 268 269 271 272 273 274 274 274 274 274 274 274 273 273 272 270 269 269 269 269 268 269 269 269 269 268 268 269 271 273 273 272 271 270 269 269 268 268
262 262 262 262 262 262 263 263 263 263 263 263 263 263 263 263 263 264 264 265 265 266 266 266 267 268 269 270 271 272 272 273 273 274 274 274 274 273 272 271 270 269 269 268 269 269 268 268 268 269 268 268 269 270 271 270 270 269 270 270 269 268 267
263 263 263 262 262 262 262 262 262 262 263 263 263 263 263 263 263 264 264 265 265 266 266 267 267 268 269 270 271 271 271 271 272 272 272 272 272 271 270 269 270 270 269 269 269 269 268 268 268 268 268 269 269 269 269 269 268 268 269 269 269 268 267
263 263 263 263 262 262 262 262 261 261 261 262 262 262 263 263 264 264 265 265 266 266 267 267 268 269 269 270 270 270 270 270 270 270 270 270 270 270 270 270 269 269 269 269 270 270 270 270 269 269 269 269 269 269 269 269 268 268 268 268 267 267 266
263 263 263 263 263 262 262 262 262 262 262 262 261 262 262 262 263 264 264 265 266 267 268 268 269 269 270 270 271 271 270 270 270 271 271 271 271 271 271 270 268 267 266 269 272 274 275 275 274 274 273 272 271 271 270 270 269 268 268 267 266 265 265
263 263 263 263 263 263 264 264 264 263 263 263 263 263 263 263 263 263 263 264 265 266 267 268 269 269 270 271 271 271 271 272 272 272 272 273 273 272 271 269 268 267 268 272 276 277 276 276 276 277 277 276 275 274 272 271 270 269 268 266 265 264 263
262 262 262 263 263 263 264 265 265 265 265 265 264 264 264 264 264 264 264 264 265 265 266 267 267 268 269 270 270 271 272 273 273 273 273 273 273 272 271 269 268 269 272 276 277 276 275 276 277 277 277 276 276 274 273 271 269 268 266 265 264 263 262
261 261 261 261 261 262 262 263 264 264 265 265 265 265 265 265 266 266 266 266 267 267 268 268 269 270 270 271 271 272 273 274 275 275 274 273 272 271 270 269 269 271 274 276 275 274 275 276 276 276 276 275 275 274 272 271 269 268 266 265 264 264 263
261 260 260 260 260 260 260 261 262 263 263 263 263 263 264 265 265 266 267 267 268 268 269 269 270 270 271 272 273 274 275 275 275 275 275 274 273 271 270 270 270 271 272 272 273 273 274 274 274 275 275 275 274 274 273 271 270 269 268 268 267 267 266